Fort Campbell, KY

7:26 AM CDT on October 17, 2017 (GMT -0500)
Campbell Army Air Field

Weather History for KHOP - October, 2014

Change the Weather History Date:

Thursday, October 9, 2014

  Actual Average Record
Temperature  
Mean Temperature 69 °F -  
Max Temperature 80 °F 71 °F 87 °F (2010)
Min Temperature 58 °F 49 °F 30 °F (2000)
Cooling Degree Days 4    
Growing Degree Days 19 (Base 50)    
Moisture  
Dew Point 63 °F    
Average Humidity 91    
Maximum Humidity 100    
Minimum Humidity 61    
Precipitation  
Precipitation 0.29 in - - ()
Sea Level Pressure  
Sea Level Pressure 30.08 in    
Wind  
Wind Speed 6 mph (East)    
Max Wind Speed 25 mph    
Max Gust Speed 39 mph    
Visibility 8 miles    
Events Rain , Thunderstorm    
Averages and records for this station are not official NWS values.
T = Trace of Precipitation, MM = Missing Value Source: NWS Daily Summary

Daily Weather History Graph

Daily Weather History Graph

Search for Another Location

Airport or City:

Trip Planner

Search our weather history database for the weather conditions in past years. The results will help you decide how hot, cold, wet, or windy it might be!

Date:

Astronomy

Oct. 09, 2014 Rise Set
Actual Time 6:52 AM CDT 6:21 PM CDT
Civil Twilight 6:26 AM CDT 6:47 PM CDT
Nautical Twilight 5:56 AM CDT 7:17 PM CDT
Astronomical Twilight 5:26 AM CDT 7:47 PM CDT
Moon 7:20 PM CDT (10/9) 8:04 AM CDT (10/9)
Length of Visible Light 12h 21m
Length of Day
11h 29m
Full, 98% of the Moon is Illuminated
Oct 9
Full
Oct 15
Last Quarter
Oct 23
New
Oct 30
First Quarter
Nov 6
Full

Hourly Weather History & Observations

Time (CDT) Temp. Heat Index Dew Point Humidity Pressure Visibility Wind Dir Wind Speed Gust Speed Precip Events Conditions
12:58 AM 58.3 °F - 54.9 °F 88% 30.09 in 10.0 mi East 1.2 mph - N/A   Clear
1:58 AM 59.2 °F - 55.8 °F 88% 30.08 in 10.0 mi SSE 1.2 mph - N/A   Mostly Cloudy
2:58 AM 58.6 °F - 57.6 °F 96% 30.05 in 10.0 mi East 2.3 mph - N/A   Overcast
3:58 AM 59.2 °F - 59.2 °F 100% 30.06 in 10.0 mi East 2.3 mph - N/A   Mostly Cloudy
4:58 AM 59.0 °F - 59.0 °F 100% 30.06 in 10.0 mi East 2.3 mph - N/A   Scattered Clouds
5:58 AM 58.3 °F - 58.3 °F 100% 30.07 in 10.0 mi NNE 5.8 mph - N/A   Mostly Cloudy
6:58 AM 59.7 °F - 59.7 °F 100% 30.07 in 10.0 mi NNE 5.8 mph - N/A   Mostly Cloudy
7:13 AM 60.8 °F - 60.8 °F 100% 30.07 in 10.0 mi NE 4.6 mph - N/A Thunderstorm Thunderstorm
7:16 AM 60.8 °F - 60.8 °F 100% 30.07 in 10.0 mi North 4.6 mph - N/A Rain , Thunderstorm Light Thunderstorms and Rain
7:42 AM 60.8 °F - 60.8 °F 100% 30.10 in 10.0 mi NE 4.6 mph - N/A Thunderstorm Thunderstorm
7:47 AM 60.8 °F - 60.8 °F 100% 30.10 in 10.0 mi NNE 4.6 mph - N/A Thunderstorm Overcast
7:58 AM 60.3 °F - 60.3 °F 100% 30.17 in 8.0 mi NW 12.7 mph 27.6 mph 0.01 in Thunderstorm Overcast
7:59 AM 60.8 °F - 60.8 °F 100% 30.17 in 7.0 mi NW 12.7 mph 27.6 mph N/A Thunderstorm Light Drizzle
8:05 AM 60.8 °F - 60.8 °F 100% 30.16 in 2.5 mi NNW 11.5 mph 27.6 mph N/A Rain , Thunderstorm Rain
8:06 AM 60.8 °F - 60.8 °F 100% 30.16 in 1.8 mi NNW 12.7 mph 19.6 mph N/A Rain Heavy Rain
8:15 AM 60.8 °F - 60.8 °F 100% 30.15 in 2.0 mi North 9.2 mph 21.9 mph N/A Rain Heavy Rain
8:18 AM 60.8 °F - 60.8 °F 100% 30.14 in 1.8 mi North 12.7 mph 21.9 mph N/A Rain Heavy Rain
8:23 AM 60.8 °F - 60.8 °F 100% 30.13 in 2.0 mi NNE 12.7 mph - N/A Rain Rain
8:26 AM 60.8 °F - 60.8 °F 100% 30.13 in 2.5 mi NNE 10.4 mph - N/A Rain , Thunderstorm Light Thunderstorms and Rain
8:27 AM 60.8 °F - 60.8 °F 100% 30.13 in 4.0 mi NNE 9.2 mph - N/A Rain , Thunderstorm Light Thunderstorms and Rain
8:28 AM 60.8 °F - 60.8 °F 100% 30.13 in 5.0 mi NNE 9.2 mph - N/A Rain , Thunderstorm Light Thunderstorms and Rain
8:41 AM 60.8 °F - 60.8 °F 100% 30.12 in 9.0 mi NE 10.4 mph - N/A Thunderstorm Light Drizzle
8:43 AM 60.8 °F - 60.8 °F 100% 30.12 in 9.0 mi NE 10.4 mph - N/A Thunderstorm Light Drizzle
8:48 AM 60.8 °F - 60.8 °F 100% 30.12 in 9.0 mi NE 9.2 mph - N/A Thunderstorm Light Drizzle
8:51 AM 60.8 °F - 60.8 °F 100% 30.12 in 9.0 mi ENE 10.4 mph - N/A Thunderstorm Light Drizzle
8:58 AM 61.9 °F - 61.9 °F 100% 30.12 in 10.0 mi ENE 8.1 mph - 0.28 in   Light Drizzle
8:59 AM 62.6 °F - 62.6 °F 100% 30.12 in 10.0 mi ENE 8.1 mph - N/A   Mostly Cloudy
9:58 AM 63.3 °F - 63.3 °F 100% 30.12 in 10.0 mi ESE 8.1 mph - 0.00 in   Mostly Cloudy
10:02 AM 64.4 °F - 64.4 °F 100% 30.12 in 10.0 mi SE 9.2 mph - N/A   Overcast
10:58 AM 65.3 °F - 65.3 °F 100% 30.12 in 10.0 mi ESE 8.1 mph - N/A   Overcast
11:32 AM 68.0 °F - 64.4 °F 88% 30.11 in 10.0 mi SE 8.1 mph - N/A   Mostly Cloudy
11:58 AM 69.1 °F - 64.2 °F 84% 30.11 in 10.0 mi SE 6.9 mph - N/A   Scattered Clouds
12:58 PM 74.8 °F - 65.8 °F 73% 30.08 in 9.0 mi SE 9.2 mph - N/A   Clear
1:58 PM 76.6 °F - 65.8 °F 69% 30.05 in 10.0 mi SSE 6.9 mph - N/A   Clear
2:58 PM 79.3 °F - 66.7 °F 65% 30.03 in 10.0 mi SSE 8.1 mph - N/A   Clear
3:58 PM 79.9 °F - 66.6 °F 64% 30.00 in 10.0 mi South 5.8 mph - N/A   Clear
4:10 PM 78.8 °F - 66.2 °F 65% 30.00 in 10.0 mi South 1.2 mph - N/A   Light Drizzle
4:17 PM 80.6 °F 82.7 °F 66.2 °F 61% 30.00 in 10.0 mi South 9.2 mph - N/A   Scattered Clouds
4:58 PM 79.3 °F - 66.6 °F 65% 29.99 in 10.0 mi South 5.8 mph - 0.00 in   Clear
5:58 PM 77.2 °F - 67.3 °F 71% 30.00 in 10.0 mi SE 3.5 mph - N/A   Clear
6:58 PM 75.0 °F - 68.0 °F 79% 29.99 in 10.0 mi SE 4.6 mph - N/A   Clear
7:58 PM 74.3 °F - 68.7 °F 83% 30.00 in 10.0 mi SE 4.6 mph - N/A   Scattered Clouds
8:58 PM 73.2 °F - 69.8 °F 89% 29.99 in 10.0 mi SSE 4.6 mph - N/A   Scattered Clouds
9:58 PM 72.3 °F - 70.5 °F 94% 29.99 in 10.0 mi South 4.6 mph - N/A   Overcast
10:58 PM 71.4 °F - 69.8 °F 95% 29.99 in 10.0 mi SSW 4.6 mph - N/A   Scattered Clouds
11:36 PM 71.6 °F - 68.0 °F 88% 30.01 in 7.0 mi West 25.3 mph 39.1 mph N/A   Mostly Cloudy
11:40 PM 71.6 °F - 68.0 °F 88% 30.01 in 8.0 mi West 18.4 mph 39.1 mph N/A Rain Light Rain
11:58 PM 68.4 °F - 66.6 °F 94% 30.00 in 10.0 mi West 6.9 mph - 0.00 in   Drizzle